FLOCK 2K-25 (42884 NORAD) Tracking and Keplerian Element Data

This shows tracking and keplerian element data for the satellite.

Feedback or suggestion? Click here.




ElementValue
Catalog42884
NameFLOCK 2K-25
Epoch Orbit17269
Epoch Day225.1571257
Epoch Year2020
RAAN89.9676
Inclination96.8871
Eccentricity0.0012076
Argument of Perigee113.5594
Mean Anonmoly246.6924
Mean Motion15.41648172
Decay Rate2.35E-05
L11 42884U 17042BM 20225.15712570 .00002350 00000-0 57498-4 0 9996
L22 42884 96.8871 89.9676 0012076 113.5594 246.6924 15.41648172172693

Live tracking and technical data element details for FLOCK 2K-25 (NORAD 42884). FLOCK 2K-25 can be tracked NOW for your location showing map with azimuth and elevation plus other details from your city location.

Track the satellite on the map from your city or location and see movement details for azimuth, elevation, latitude, longitude, range, height, and movement on the map or in text.







IsCatalogInMostPopularTable: catalog: 42884, numindb: 469
Update: records affected: 1



GetName: 42884 FLOCK 2K-25

Hit Count: updated at: Thu, 13 Aug 2020 19:28:22 GMT